Weather in Russkaya Polyana

Ukraine / Cherkassi District     49°24′50″N   31°55′21″E
temp.,
°C
wind,
m/s
gust,
m/s
humid.,
%
clouds,
%
prec.,
mm/h
press.,
hPa
HPBL,
m
19 april, mon
mon1900:00+5nne3591100 0.0 1018173
03:00+4ne2391100 0.0 101877
06:00+4n3591100 0.0 1017130
09:00+7ne3576100 0.0 1017495
12:00+10ne4462100 0.0 1016902
15:00+11ne4458100 0.1 10161064
18:00+11n3457100 0.0 1015933
21:00+9n2366100 0.0 101550
20 april, tue
tue2000:00+9nne3473100 0.1 101372
03:00+7ne238183 0.1 101253
06:00+5nne348798 0.0 101182
09:00+9nne3570100 0.0 1010375
12:00+12nne4455100 0.1 10091219
15:00+13nnw5550100 0.1 10071443
18:00+11nw6964100 0.1 1007592
21:00+8wnw5107749 0.1 1008295
21 april, wed
wed2100:00+7wnw58905 0.0 1009264
03:00+6wnw489079 0.1 1010241
06:00+5w47876 0.0 1011156
09:00+9w4670100 0.1 1012438
12:00+11wsw565773 0.2 10131130
15:00+13w464999 0.4 10121575
18:00+13w3553100 0.0 10131050
21:00+10sw336610 0.0 101524
22 april, thu
thu2200:00+8sw35725 0.0 101588
03:00+7sw378063 0.0 1016116
06:00+7sw378652 0.0 1016125
09:00+12sw46656 0.0 1017345
12:00+16ssw684781 0.2 10171906
15:00+16ssw5849100 0.3 1017584
18:00+17ssw575098 0.2 10171523
21:00+12ssw5107013 1.1 1018199
23 april, fri
fri2300:00+11ssw5127471 0.0 1018264
03:00+10s5117874 0.0 1018268
06:00+9s5137858 0.0 1017311
09:00+13s711665 0.0 1017472
12:00+17ssw911515 0.2 10161643
15:00+17ssw71052100 0.8 10151831
18:00+15sw81265100 0.8 1015891
21:00+7nnw61090100 5.2 1018489